GW3318 Weather Reports


Display with metric or nautical units.
time (UTC)temp
F
wind
direction
speed
MPH
gust
MPH
rain 1hr
in
rain 24hr
in
rain mn
in
humidity
%
barometer
mb
20260508040316 89 236 2.0 3.0 0.00 0.00 0.00 69 1011.9
20260508035816 89 246 0.0 3.0 0.00 0.00 0.00 68 1011.9
20260508035316 89 297 1.0 3.0 0.00 0.00 0.00 68 1011.9
20260508034816 89 80 1.0 5.0 0.00 0.00 0.00 69 1012.0
20260508034315 88 206 0.0 2.0 0.00 0.00 0.00 69 1012.0
20260508033316 87 249 2.0 3.0 0.00 0.00 0.00 70 1012.1
20260508032816 87 242 2.0 6.0 0.00 0.00 0.00 71 1012.2
20260508032316 87 232 1.0 3.0 0.00 0.00 0.00 71 1012.3
20260508031816 87 250 2.0 3.0 0.00 0.00 0.00 72 1012.4
20260508031317 86 246 3.0 7.0 0.00 0.00 0.00 73 1012.5
20260508030816 86 248 1.0 3.0 0.00 0.00 0.00 74 1012.6
20260508030316 86 245 1.0 5.0 0.00 0.00 0.00 73 1012.7
20260508025816 86 228 2.0 5.0 0.00 0.00 0.00 74 1012.8
20260508025316 86 235 2.0 3.0 0.00 0.00 0.00 74 1012.9
20260508024815 86 275 1.0 5.0 0.00 0.00 0.00 73 1013.0
20260508024316 86 242 1.0 5.0 0.00 0.00 0.00 74 1013.0
20260508023815 86 232 0.0 3.0 0.00 0.00 0.00 74 1013.2
20260508022815 86 354 1.0 5.0 0.00 0.00 0.00 74 1013.3
20260508021815 85 318 1.0 3.0 0.00 0.00 0.00 74 1013.3
20260508021315 85 270 1.0 3.0 0.00 0.00 0.00 75 1013.4
20260508020315 85 19 1.0 3.0 0.00 0.00 0.00 74 1013.5
20260508015816 85 24 2.0 3.0 0.00 0.00 0.00 75 1013.6
20260508014815 86 298 0.0 2.0 0.00 0.00 0.00 73 1013.6
20260508014317 86 257 1.0 2.0 0.00 0.00 0.00 73 1013.6
20260508013815 85 301 0.0 1.0 0.00 0.00 0.00 73 1013.6
20260508013316 86 297 1.0 3.0 0.00 0.00 0.00 73 1013.6
20260508011815 83 252 0.0 3.0 0.00 0.00 0.00 78 1013.6
20260508011315 82 260 1.0 2.0 0.00 0.00 0.00 79 1013.4
20260508010815 82 310 0.0 2.0 0.00 0.00 0.00 79 1013.2
20260508010315 82 224 0.0 1.0 0.00 0.00 0.00 80 1013.3
20260508005816 81 223 0.0 2.0 0.00 0.00 0.00 81 1013.1
20260508005315 81 235 2.0 3.0 0.00 0.00 0.00 80 1013.1
20260508004815 81 231 0.0 3.0 0.00 0.00 0.00 80 1013.1
20260508004315 81 222 0.0 2.0 0.00 0.00 0.00 80 1013.1
20260508003815 81 229 0.0 1.0 0.00 0.00 0.00 81 1013.0
20260508003316 81 231 0.0 1.0 0.00 0.00 0.00 81 1013.1
20260508002816 81 258 0.0 0.0 0.00 0.00 0.00 81 1013.1
20260508002315 81 258 0.0 1.0 0.00 0.00 0.00 80 1013.1
20260508001815 82 258 0.0 0.0 0.00 0.00 0.00 80 1013.1
20260508001315 82 258 0.0 0.0 0.00 0.00 0.00 80 1013.2
20260508000315 81 258 0.0 2.0 0.00 0.00 0.00 81 1013.2
20260507235815 81 257 0.0 1.0 0.00 0.00 0.00 80 1013.1
20260507235315 81 257 0.0 1.0 0.00 0.00 0.00 80 1013.0
20260507234815 81 258 0.0 1.0 0.00 0.00 0.00 81 1013.0
20260507233816 80 268 0.0 0.0 0.00 0.00 0.00 83 1012.9
20260507233315 80 268 0.0 0.0 0.00 0.00 0.00 84 1012.8
20260507232815 78 268 0.0 0.0 0.00 0.00 0.00 86 1012.8
20260507232315 78 268 0.0 0.0 0.00 0.00 0.00 86 1012.9
20260507231815 78 270 0.0 0.0 0.00 0.00 0.00 87 1012.7
20260507231315 77 270 0.0 0.0 0.00 0.00 0.00 89 1012.8
20260507230315 76 272 0.0 0.0 0.00 0.00 0.00 90 1012.8
20260507225816 75 272 0.0 0.0 0.00 0.00 0.00 91 1012.7
20260507225315 75 272 0.0 0.0 0.00 0.00 0.00 93 1012.7
20260507224315 74 272 0.0 0.0 0.00 0.00 0.00 93 1012.6
20260507223815 74 272 0.0 0.0 0.00 0.00 0.00 93 1012.5
20260507223314 74 272 0.0 0.0 0.00 0.00 0.00 93 1012.3
20260507222815 74 272 0.0 0.0 0.00 0.00 0.00 93 1012.3
20260507222315 74 272 0.0 0.0 0.00 0.00 0.00 93 1012.1
20260507221815 73 255 0.0 0.0 0.00 0.00 0.00 94 1012.1
20260507221315 73 255 0.0 0.0 0.00 0.00 0.00 94 1012.1
20260507220816 73 255 0.0 0.0 0.00 0.00 0.00 94 1012.0
20260507215815 73 255 0.0 0.0 0.00 0.00 0.00 94 1012.0
20260507215315 73 255 0.0 0.0 0.00 0.00 0.00 93 1011.9
20260507214815 74 255 0.0 0.0 0.00 0.00 0.00 93 1011.9
20260507214315 74 255 0.0 0.0 0.00 0.00 0.00 93 1011.8
20260507213815 74 255 0.0 0.0 0.00 0.00 0.00 94 1011.8
20260507213315 74 255 0.0 0.0 0.00 0.00 0.00 93 1011.8
20260507212314 73 255 0.0 0.0 0.00 0.00 0.00 94 1011.7
20260507211814 73 255 0.0 0.0 0.00 0.00 0.00 94 1011.6
20260507211314 74 255 0.0 0.0 0.00 0.00 0.00 94 1011.5
20260507210314 74 255 0.0 0.0 0.00 0.00 0.00 94 1011.4
20260507205315 74 255 0.0 0.0 0.00 0.00 0.00 93 1011.3
20260507204815 74 255 0.0 0.0 0.00 0.00 0.00 93 1011.1
20260507204314 74 255 0.0 0.0 0.00 0.00 0.00 93 1011.0
20260507203815 74 255 0.0 0.0 0.00 0.00 0.00 93 1010.9
20260507203315 74 255 0.0 0.0 0.00 0.00 0.00 93 1010.9
20260507202815 74 255 0.0 0.0 0.00 0.00 0.00 93 1010.8
20260507201815 74 255 0.0 0.0 0.00 0.00 0.00 92 1010.8
20260507201314 74 255 0.0 0.0 0.00 0.00 0.00 92 1010.8
20260507200815 75 255 0.0 0.0 0.00 0.00 0.00 91 1010.7
20260507200315 75 255 0.0 0.0 0.00 0.00 0.00 91 1010.7
20260507195815 75 255 0.0 0.0 0.00 0.00 0.00 91 1010.7
20260507195315 75 255 0.0 0.0 0.00 0.00 0.00 91 1010.6
20260507194314 75 255 0.0 0.0 0.00 0.00 0.00 92 1010.5
20260507193816 75 255 0.0 0.0 0.00 0.00 0.00 91 1010.5
20260507192815 75 258 0.0 0.0 0.00 0.00 0.00 92 1010.5
20260507192315 75 258 0.0 0.0 0.00 0.00 0.00 92 1010.6
20260507191815 75 258 0.0 0.0 0.00 0.00 0.00 92 1010.7
20260507191315 75 258 0.0 0.0 0.00 0.00 0.00 91 1010.7
20260507190815 75 258 0.0 0.0 0.00 0.00 0.00 91 1010.8
20260507190315 75 258 0.0 0.0 0.00 0.00 0.00 92 1010.9
20260507185815 75 255 0.0 1.0 0.00 0.00 0.00 92 1011.0
20260507185315 75 255 0.0 0.0 0.00 0.00 0.00 91 1011.0
20260507184815 75 255 0.0 1.0 0.00 0.00 0.00 91 1011.1
20260507184315 75 255 0.0 0.0 0.00 0.00 0.00 91 1011.1
20260507183815 75 255 0.0 0.0 0.00 0.00 0.00 91 1011.0
20260507183315 75 255 0.0 1.0 0.00 0.00 0.00 91 1011.1
20260507182815 75 231 0.0 1.0 0.00 0.00 0.00 90 1011.1
20260507182315 75 244 0.0 0.0 0.00 0.00 0.00 91 1011.2
20260507181815 75 246 0.0 0.0 0.00 0.00 0.00 91 1011.4
20260507181315 75 246 0.0 0.0 0.00 0.00 0.00 91 1011.5
20260507180815 75 246 0.0 0.0 0.00 0.00 0.00 91 1011.6
20260507174814 75 246 0.0 0.0 0.00 0.00 0.00 91 1011.6
20260507173315 75 246 0.0 0.0 0.00 0.00 0.00 91 1011.7
20260507172815 76 246 0.0 0.0 0.00 0.00 0.00 90 1011.7
20260507172315 76 246 0.0 0.0 0.00 0.00 0.00 90 1011.6
20260507171814 76 246 0.0 0.0 0.00 0.00 0.00 90 1011.6
20260507171315 76 246 0.0 0.0 0.00 0.00 0.00 90 1011.7
20260507170815 76 246 0.0 0.0 0.00 0.00 0.00 90 1011.6
20260507170315 76 246 0.0 0.0 0.00 0.00 0.00 89 1011.7
20260507165314 76 246 0.0 0.0 0.00 0.00 0.00 89 1011.8
20260507164814 76 246 0.0 0.0 0.00 0.00 0.00 89 1011.9
20260507164315 76 246 0.0 0.0 0.00 0.00 0.00 89 1011.9
20260507163815 76 246 0.0 0.0 0.00 0.00 0.00 89 1011.9
20260507162814 76 246 0.0 0.0 0.00 0.00 0.00 89 1012.0
20260507162315 76 246 0.0 0.0 0.00 0.00 0.00 89 1012.1
20260507161814 76 246 0.0 0.0 0.00 0.00 0.00 88 1012.0
20260507161314 76 246 0.0 0.0 0.00 0.00 0.00 89 1012.0
20260507160814 76 245 0.0 0.0 0.00 0.00 0.00 89 1011.9
20260507160315 76 245 0.0 0.0 0.00 0.00 0.00 89 1012.2
20260507155814 76 245 0.0 0.0 0.00 0.00 0.00 88 1012.1
20260507155315 77 245 0.0 0.0 0.00 0.00 0.00 88 1012.1
20260507154814 77 230 0.0 0.0 0.00 0.00 0.00 88 1012.0
20260507154314 77 230 0.0 0.0 0.00 0.00 0.00 88 1012.1
20260507153814 77 230 0.0 0.0 0.00 0.00 0.00 88 1012.1
20260507152815 77 230 0.0 0.0 0.00 0.00 0.00 88 1012.2
20260507152314 77 230 0.0 0.0 0.00 0.00 0.00 88 1012.2
20260507151314 76 239 0.0 0.0 0.00 0.00 0.00 89 1012.2
20260507150814 76 239 0.0 0.0 0.00 0.00 0.00 89 1012.2
20260507150314 76 239 0.0 0.0 0.00 0.00 0.00 89 1012.2
20260507145814 76 239 0.0 0.0 0.00 0.00 0.00 88 1012.3
20260507145314 76 239 0.0 0.0 0.00 0.00 0.00 88 1012.4
20260507144814 77 239 0.0 1.0 0.00 0.00 0.00 88 1012.4
20260507144314 77 239 0.0 0.0 0.00 0.00 0.00 88 1012.3
20260507143314 77 239 0.0 0.0 0.00 0.00 0.00 88 1012.2
20260507142314 77 223 0.0 0.0 0.00 0.00 0.00 88 1012.2
20260507141814 77 223 0.0 0.0 0.00 0.00 0.00 88 1012.1
20260507141314 77 223 0.0 0.0 0.00 0.00 0.00 88 1011.9
20260507140314 77 223 0.0 0.0 0.00 0.00 0.00 88 1011.7
20260507135814 77 223 0.0 0.0 0.00 0.00 0.00 88 1011.8
20260507135314 77 223 0.0 0.0 0.00 0.00 0.00 88 1011.7
20260507134815 77 223 0.0 0.0 0.00 0.00 0.00 88 1011.5
20260507134314 77 222 0.0 1.0 0.00 0.00 0.00 88 1011.5
20260507133814 77 203 0.0 1.0 0.00 0.00 0.00 87 1011.4
20260507133314 77 203 0.0 1.0 0.00 0.00 0.00 87 1011.3
20260507132815 77 203 0.0 0.0 0.00 0.00 0.00 87 1011.2
20260507132314 78 203 0.0 1.0 0.00 0.00 0.00 87 1011.2
20260507131814 78 229 0.0 1.0 0.00 0.00 0.00 87 1011.2
20260507131314 78 231 0.0 0.0 0.00 0.00 0.00 87 1011.0
20260507130814 78 231 0.0 0.0 0.00 0.00 0.00 86 1011.1
20260507130314 78 231 0.0 0.0 0.00 0.00 0.00 86 1011.0
20260507125814 78 231 0.0 1.0 0.00 0.00 0.00 86 1010.8
20260507125314 78 293 0.0 0.0 0.00 0.00 0.00 86 1010.9
20260507124814 78 293 0.0 0.0 0.00 0.00 0.00 86 1010.9
20260507124314 78 293 0.0 0.0 0.00 0.00 0.00 86 1010.8
20260507123314 78 296 0.0 2.0 0.00 0.00 0.00 85 1010.5
20260507122814 79 216 0.0 0.0 0.00 0.00 0.00 84 1010.4
20260507122314 79 229 0.0 0.0 0.00 0.00 0.00 84 1010.5
20260507121814 79 229 0.0 0.0 0.00 0.00 0.00 84 1010.4
20260507121314 79 229 0.0 0.0 0.00 0.00 0.00 84 1010.3
20260507120814 79 229 0.0 1.0 0.00 0.00 0.00 83 1010.3
20260507120314 79 226 0.0 0.0 0.00 0.00 0.00 83 1010.3
20260507115814 79 226 0.0 1.0 0.00 0.00 0.00 83 1010.2
20260507115314 79 227 1.0 2.0 0.00 0.00 0.00 83 1010.1
20260507114814 79 237 0.0 1.0 0.00 0.00 0.00 82 1010.0
20260507113813 80 237 0.0 0.0 0.00 0.00 0.00 82 1009.9
20260507113314 80 237 0.0 0.0 0.00 0.00 0.00 81 1009.7
20260507112814 80 237 0.0 0.0 0.00 0.00 0.00 81 1009.6
20260507112314 80 237 0.0 1.0 0.00 0.00 0.00 80 1009.5
20260507111814 81 237 1.0 3.0 0.00 0.00 0.00 80 1009.6
20260507111313 81 248 0.0 1.0 0.00 0.00 0.00 80 1009.6
20260507110814 81 258 0.0 0.0 0.00 0.00 0.00 80 1009.6
20260507110314 81 258 0.0 1.0 0.00 0.00 0.00 79 1009.6
20260507105314 82 311 0.0 0.0 0.00 0.00 0.00 79 1009.5
20260507104814 82 312 0.0 2.0 0.00 0.00 0.00 79 1009.5
20260507104315 82 235 0.0 1.0 0.00 0.00 0.00 78 1009.6
20260507103814 82 235 0.0 1.0 0.00 0.00 0.00 78 1009.7
20260507103314 82 130 1.0 6.0 0.00 0.00 0.00 77 1009.6
20260507102814 83 28 4.0 8.0 0.00 0.00 0.00 77 1009.4
20260507102314 83 88 1.0 5.0 0.00 0.00 0.00 76 1009.4
20260507101814 84 60 1.0 3.0 0.00 0.00 0.00 76 1009.4
20260507101315 84 160 1.0 6.0 0.00 0.00 0.00 75 1009.2
20260507100314 85 119 2.0 7.0 0.00 0.00 0.00 74 1009.3
20260507095814 85 9 3.0 6.0 0.00 0.00 0.00 73 1009.1
20260507095316 88 215 2.0 2.0 0.00 0.00 0.00 68 1011.0
20260507043314 88 49 4.0 9.0 0.00 0.00 0.00 68 1011.1
20260507042814 89 5 2.0 7.0 0.00 0.00 0.00 69 1011.1
20260507042314 88 108 2.0 7.0 0.00 0.00 0.00 71 1011.1